Regional Weather Roundup
Issued by NWS

Home | Current Version | Previous Version | Graphics & Text | Print | Product List | Glossary On
Versions: 1 2 3 4 5 6 7 8 9 10 11 12 13 14 15 16 17 18 19 20 21 22 23 24 25 26 27 28 29 30 31 32 33 34 35 36 37 38 39 40 41 42 43 44 45 46 47 48 49 50
257
ASUS44 KMEG 191610
RWRTN
TENNESSEE HOURLY STATE WEATHER ROUNDUP
NATIONAL WEATHER SERVICE MEMPHIS TN
1100 AM CDT SAT AUG 19 2017

TNZ002-004-019-021-049-052-054-088>092-191700-
WEST TENNESSEE

CITY           SKY/WX    TMP DP  RH WIND       PRES   REMARKS
MEMPHIS INTL   MOSUNNY   86  74  67 NW8       30.00S HX  94
NWS MEMPHIS      N/A     85 N/A N/A MISG        N/A
JACKSON        SUNNY     86  74  67 W7        30.00R HX  94
DYERSBURG      SUNNY     84  72  67 W8        29.99S
SOMERVILLE     SUNNY     86  72  62 NW6       30.00S HX  92
COVINGTON      SUNNY     86  72  62 W5        29.99S HX  92
UNION CITY     SUNNY     84  73  70 SW5       29.97S HX  91
BOLIVAR        SUNNY     86  70  58 CALM      30.00S HX  90
PARIS          SUNNY     84  73  70 VRB5      29.98S HX  91
HUNTINGDON     SUNNY     86  73  66 W6        29.98S HX  93
LEXINGTON      SUNNY     84  73  70 VRB6      30.00R HX  91
SELMER         SUNNY     84  70  61 VRB5      30.01S
SAVANNAH       SUNNY     86  73  66 VRB5G12   30.00S HX  93
$$

TNZ008-025-027-028-033-062-065-066-191700-
NORTH MIDDLE TENNESSEE

CITY           SKY/WX    TMP DP  RH WIND       PRES   REMARKS
NASHVILLE      MOSUNNY   86  67  52 SW5       30.02S
PORTLAND       SUNNY     82  66  57 NE3       30.01F
CLARKSVILLE    SUNNY     83  70  64 VRB5      29.99F
SMYRNA         SUNNY     84  69  60 SE7       30.02F
COOKEVILLE     SUNNY     81  68  65 CALM      30.04R
GALLATIN       SUNNY     84  66  54 VRB3      30.04S
CROSSVILLE     SUNNY     78  65  63 VRB3      30.08F
$$

TNZ061-075-076-078-094-096-097-191700-
SOUTH MIDDLE TENNESSEE

CITY           SKY/WX    TMP DP  RH WIND       PRES   REMARKS
FAYETTEVILLE   SUNNY     81  68  65 VRB5      30.04S
TULLAHOMA      SUNNY     81  64  57 CALM      30.06S
WINCHESTER     SUNNY     82  66  57 CALM      30.05S
MCMINNVILLE    SUNNY     82  72  69 VRB3      30.04F
COLUMBIA       SUNNY     82  72  69 VRB6      30.00F
SHELBYVILLE    SUNNY     81  70  69 VRB5      30.03S
$$

TNZ017-018-042-046-047-191700-
NORTHEAST TENNESSEE

CITY           SKY/WX    TMP DP  RH WIND       PRES   REMARKS
TRI CITIES     MOSUNNY   78  65  63 CALM      30.07F
ELIZABETHTON   PTSUNNY   77  66  69 VRB3      30.08S
$$

TNZ012-013-036-069-073-074-191700-
CENTRAL EAST TENNESSEE

CITY           SKY/WX    TMP DP  RH WIND       PRES   REMARKS
KNOXVILLE      MOSUNNY   81  64  56 VRB6      30.03F
OAK RIDGE      SUNNY     82  64  54 E5        30.05S
DOWNTOWN KNOXV SUNNY     82  68  61 SE6       30.03F
GATLINBURG     SUNNY     81  61  50 CALM      30.04F
MORRISTOWN     MOSUNNY   81  66  61 VRB5      30.05F
JACKSBORO      SUNNY     82  68  61 SW6       30.08S
$$

TNZ083-085-099-191700-
SOUTHEAST TENNESSEE

CITY           SKY/WX    TMP DP  RH WIND       PRES   REMARKS
CHATTANOOGA    MOSUNNY   83  66  56 NW7       30.04S
DAYTON         SUNNY     82  70  65 CALM      30.03F
$$

SKY/WX REPORTED AS FAIR MEANS FEW OR NO CLOUDS BELOW
12 THOUSAND FEET.





USA.gov is the U.S. government's official web portal to all federal, state and local government web resources and services.